Probability
0 0 0 0 0 0 0 0 0 0 0 0 0 0 0 0 0 0 0 0 0 0 0 0 0 0 0 0 0 0 0 0 0 0 0 0 0 0 0 0 0 0 0 0
0 0 0 0 0 0 0 0 0 0 0 0 0 0 0 0 0 0 0 0 0 0 0 0 0 0 0 0 0 0 0 0 0 0 0 0 0 0 0 0 0 0 0 0
0 0 0 0 0 0 0 0 0 0 0 0 0 0 0 0 0 0 0 0 0 0 0 0 0 0 0 0 0 0 0 0 0 0 0 0 0 0 0 0 0 0 0 0
0 0 0 0 0 0 0 0 0 0 0 0 0 0 0 0 0 0 0 0 0 0 0 0 0 0 0 0 0 0 0 0 0 0 0 0 0 0 0 0 0 0 0 0
0 0 0 0 0 0 0 0 0 0 0 0 0 0 0 0 0 0 0 0 0 0 0 0 0 0 0 0 0 0 0 0 0 0 0 0 0 0 0 0 0 0 0 0
0 0 0 0 0 0 0 0 0 0 0 0 0 0 0 0 0 0 0 0 0 0 0 0 0 0 0 0 0 0 0 0 0 0 0 0 0 0 0 0 0 0 0 0
0 0 0 0 0 0 0 0 0 0 0 0 0 0 0 0 0 0 0 0 0 0 0 0 0 0 0 0 0 0 0 0 0 0 0 0 0 0 0 0 0 0 0 0
0 0 0 0 0 0 0 0 0 0 0 0 0 0 0 0 0 0 0 0 0 0 0 0 0 0 0 0 0 0 0 0 0 0 0 0 0 0 0 0 0 0 0 0
0 0 0 0 0 0 0 0 0 0 0 0 0 0 0 0 0 0 0 0 0 0 0 0 0 0 0 0 0 0 0 0 0 0 0 0 0 0 0 0 0 0 0 0
0 0 0 0 0 0 0 0 0 0 0 0 0 0 0 0 0 0 0 0 0 0 0 0 0 0 0 0 0 0 0 0 0 0 0 0 0 0 0 0 0 0 0 0
0 0 0 0 0 0 0 0 0 0 0 0 0 0 0 0 0 0 0 0 0 0 0 0 0 0 0 0 0 0 0 0 0 0 0 0 0 0 0 0 0 0 0 0
0 0 0 0 0 0 0 0 0 0 0 0 0 0 0 0 0 0 0 0 0 0 0 0 0 0 0 0 0 0 0 0 0 0 0 0 0 0 0 0 0 0 0 0
0 0 0 0 0 0 0 0 0 0 0 0 0 0 0 0 0 0 0 0 0 0 0 0 0 0 0 0 0 0 0 0 0 0 0 0 0 0 0 0 0 0 0 0
0 0 0 0 0 0 0 0 0 0 0 0 0 0 0 0 0 0 0 0 0 0 0 0 0 0 0 0 0 0 0 0 0 0 0 0 0 0 0 0 0 0 0 0
0 0 0 0 0 0 0 0 0 0 0 0 0 0 0 0 0 0 0 0 0 0 0 0 0 0 0 0 0 0 0 0 0 0 0 0 0 0 0 0 0 0 0 0
0 0 0 0 0 0 0 0 0 0 0 0 0 0 0 0 0 0 0 0 0 0 0 0 0 0 0 0 0 0 0 0 0 0 0 0 0 0 0 0 0 0 0 0
0 0 0 0 0 0 0 0 0 0 0 0 0 0 0 0 0 0 0 0 0 0 0 0 0 0 0 0 0 0 0 0 0 0 0 0 0 0 0 0 0 0 0 0
0 0 0 0 0 0 0 0 0 0 0 0 0 0 0 0 0 0 0 0 0 0 0 0 0 0 0 0 0 0 0 0 0 0 0 0 0 0 0 0 0 0 0 0
0 0 0 0 0 0 0 0 0 0 0 0 0 0 0 0 0 0 0 0 0 0 0 0 0 0 0 0 0 0 0 0 0 0 0 0 0 0 0 0 0 0 0 0
0 0 0 0 0 0 0 0 0 0 0 0 0 0 0 0 0 0 0 0 0 0 0 0 0 0 0 0 0 0 0 0 0 0 0 0 0 0 0 0 0 0 0 0
0 0 0 0 0 0 0 0 0 0 0 0 0 0 0 0 0 0 0 0 0 0 0 0 0 0 0 0 0 0 0 0 0 0 0 0 0 0 0 0 0 0 0 0
0 0 0 0 0 0 0 0 0 0 0 0 0 0 0 0 0 0 0 0 0 0 0 0 0 0 0 0 0 0 0 0 0 0 0 0 0 0 0 0 0 0 0 0
0 0 0 0 0 0 0 0 0 0 0 0 0 0 0 0 0 0 0 0 0 0 0 0 0 0 0 0 0 0 0 0 0 0 0 0 0 0 0 0 0 0 0 0
0 0 0 0 0 0 0 0 0 0 0 0 0 0 0 0 0 0 0 0 0 0 0 0 0 0 0 0 0 0 0 0 0 0 0 0 0 0 0 0 0 0 0 0
0 0 0 0 0 0 0 0 0 0 0 0 0 0 0 0 0 0 0 0 0 0 0 0 0 0 0 0 0 0 0 0 0 0 0 0 0 0 0 0 0 0 0 0
0 0 0 0 0 0 0 0 0 0 0 0 0 0 0 0 0 0 0 0 0 0 0 0 0 0 0 0 0 0 0 0 0 0 0 0 0 0 0 0 0 0 0 0
0 0 0 0 0 0 0 0 0 0 0 0 0 0 0 0 0 0 0 0 0 0 0 0 0 0 0 0 0 0 0 0 0 0 0 0 0 0 0 0 0 0 0 0
Wind_Speed
2 2 2 2 3 4 4 4 3 2 1 1 3 3 2 2 3 3 4 4 5 5 5 5 5 5 4 5 5 4 4 4 4 4 3 3 2 2 1 1 1 1 1 1
2 2 2 4 5 5 5 5 4 3 2 2 3 3 2 2 2 3 3 4 4 5 5 5 5 6 5 5 5 5 4 4 4 4 3 3 2 2 1 1 1 1 1 1
2 1 3 6 6 7 5 3 4 5 2 3 3 2 1 1 2 2 3 4 4 4 4 4 5 5 6 5 5 5 4 4 4 4 4 3 2 2 1 1 0 1 1 1
2 2 4 3 1 1 4 4 3 2 2 3 2 2 1 2 3 3 3 3 3 4 4 4 4 5 5 5 5 4 4 4 4 4 4 4 3 2 2 1 1 1 0 0
1 3 6 2 2 2 2 3 4 4 3 3 3 2 1 3 3 2 2 2 3 3 3 4 4 5 5 5 5 5 5 5 5 5 4 4 3 3 2 1 1 1 1 1
1 2 4 1 4 2 1 2 2 4 4 4 3 1 2 1 3 3 3 3 3 3 3 4 4 4 5 5 5 5 5 5 5 5 4 4 3 3 2 1 1 0 1 1
3 4 6 2 4 3 3 3 2 3 4 4 3 2 1 2 2 2 2 3 3 3 3 3 4 4 5 5 5 5 6 6 5 5 4 3 3 2 1 1 1 0 1 1
4 5 7 5 5 4 3 2 3 3 3 3 2 2 2 2 1 1 2 2 3 3 3 3 4 4 4 5 5 5 5 5 5 5 4 3 2 2 1 1 1 1 1 1
6 6 2 6 4 2 3 3 2 2 3 3 2 1 1 1 1 1 1 2 2 2 3 3 3 4 5 5 5 5 5 6 5 5 4 3 2 2 1 1 1 1 1 1
3 4 4 5 4 3 3 3 3 3 3 3 2 1 1 0 0 1 1 1 2 2 3 3 4 4 4 5 5 5 5 5 4 4 4 3 3 2 1 1 1 1 2 2
5 4 3 5 6 6 4 4 4 3 3 3 2 1 1 1 1 0 0 1 1 1 2 3 4 4 4 4 4 5 5 5 4 4 4 3 3 2 3 2 2 2 2 2
7 6 6 5 6 6 6 5 5 4 3 3 2 2 1 1 1 0 0 1 1 1 2 3 3 4 4 4 4 5 4 4 3 3 3 3 3 3 5 4 4 4 3 3
4 2 2 3 4 5 6 5 5 5 4 3 2 2 2 1 1 0 0 0 1 1 2 2 3 3 4 4 4 4 4 4 3 3 3 3 3 3 4 5 5 4 3 3
3 3 2 3 4 5 5 5 4 4 3 3 3 2 1 1 1 1 1 1 0 1 2 2 2 3 4 4 4 4 4 4 3 3 3 3 2 2 2 3 3 3 3 3
6 5 5 4 4 4 4 5 4 4 4 3 3 3 2 2 2 2 1 0 0 0 1 2 2 3 4 4 4 4 3 3 3 3 2 2 2 2 2 2 2 2 2 2
6 4 5 5 6 6 6 6 5 5 4 4 3 3 3 2 2 1 1 1 1 1 1 1 2 3 3 3 4 3 3 4 3 2 2 2 2 2 2 2 2 2 2 2
7 7 7 7 7 7 7 7 6 5 5 4 4 3 2 2 1 1 1 1 1 1 1 1 2 2 3 3 3 3 3 3 4 3 2 2 2 2 2 2 2 2 2 2
8 8 8 9 8 8 7 6 5 5 4 4 3 3 3 3 3 2 1 1 1 2 2 1 1 2 2 2 2 2 2 2 2 2 2 2 2 2 2 2 2 2 2 2
5 5 6 6 6 7 6 6 5 5 4 4 4 4 3 3 3 2 1 1 2 3 2 1 2 1 2 2 3 2 2 2 2 2 2 3 3 2 2 2 2 2 2 2
4 5 5 5 5 5 6 5 5 5 5 5 4 4 3 3 2 2 2 3 3 2 1 1 1 1 2 2 2 2 2 2 2 2 2 2 2 2 2 2 2 2 2 2
4 5 5 5 5 5 5 6 6 5 5 5 5 5 4 3 3 3 2 3 3 1 1 1 1 1 1 2 2 1 1 2 2 2 2 2 2 2 2 2 2 2 2 2
4 4 5 5 5 4 4 4 5 5 5 5 4 4 3 3 3 3 4 3 2 2 1 1 1 2 2 2 1 1 1 2 2 2 2 2 2 2 2 2 2 2 2 2
3 4 4 5 5 4 4 3 4 5 5 5 5 5 4 4 3 3 3 2 1 2 1 2 3 4 4 2 1 2 2 2 2 2 2 2 2 2 2 2 2 2 2 2
3 3 4 4 4 4 4 4 4 3 4 4 4 4 4 3 2 3 2 2 2 2 2 3 4 4 3 1 2 2 2 2 2 2 2 2 2 2 2 2 2 2 2 2
4 3 4 5 4 4 4 4 4 3 4 3 3 4 3 3 3 2 1 2 3 2 1 3 4 4 2 2 2 2 2 2 2 2 2 2 2 2 2 2 2 2 2 2
4 3 3 3 3 3 3 4 3 3 3 3 3 2 2 2 2 1 1 2 2 2 1 1 2 2 2 2 2 2 2 2 3 2 2 2 3 3 3 3 3 3 2 3
3 3 2 2 2 2 3 3 3 4 4 4 3 2 2 2 2 2 2 2 2 1 1 1 1 1 2 2 2 2 2 2 2 2 2 2 2 2 2 3 3 3 3 3
Wind_Direction
314 323 312 262 243 222 210 210 195 226 175 146 126 114 101 82 74 57 40 34 26 16 14 9 6 3 0 350 345 342 343 340 329 323 329 334 330 319 314 327 314 284 267 254
285 254 284 277 256 236 232 227 222 248 277 91 96 93 78 67 61 49 33 27 19 11 9 4 357 352 350 344 339 339 342 335 331 333 332 331 334 333 322 328 324 318 285 244
278 175 295 269 232 212 206 199 203 225 208 103 87 93 87 57 66 57 36 21 10 2 1 358 348 345 342 339 339 344 340 334 335 334 328 324 327 332 331 325 305 302 313 274
298 336 257 238 46 178 199 214 211 196 127 115 120 112 91 78 74 52 27 12 5 360 352 351 350 345 340 341 345 341 338 337 336 335 327 327 331 326 320 313 302 276 282 264
288 284 272 199 164 156 178 238 202 193 159 102 81 81 87 68 57 57 38 18 3 357 348 349 349 344 340 342 345 346 344 343 336 329 322 320 317 312 310 309 306 281 216 203
221 272 266 171 129 110 105 260 175 162 156 136 114 163 236 66 51 46 38 24 9 358 359 358 350 349 346 343 346 346 343 335 329 325 323 320 314 312 313 307 288 297 291 232
223 252 270 137 135 129 163 231 140 130 135 137 159 178 132 73 56 46 29 20 15 12 7 354 348 352 347 343 344 339 333 331 332 332 328 324 321 317 318 315 305 260 261 262
192 224 248 150 148 184 193 123 111 109 118 121 112 102 92 72 60 40 23 16 15 10 357 351 353 351 343 343 340 338 335 333 334 338 336 333 329 316 303 277 255 250 227 253
200 215 186 164 175 153 121 130 121 113 108 121 125 130 105 72 52 34 23 13 14 5 349 346 355 357 345 339 341 340 338 336 336 341 338 335 331 323 315 293 256 255 232 234
268 247 193 189 173 160 155 147 134 132 133 130 137 133 124 19 47 22 19 8 7 358 349 346 356 356 344 337 341 340 333 332 334 336 336 341 337 326 305 277 252 246 240 234
250 249 208 215 196 182 165 146 141 139 143 150 147 160 187 229 225 241 6 355 5 348 338 341 350 350 346 344 344 339 334 335 337 337 337 335 335 330 319 295 278 270 248 222
224 209 193 210 181 168 166 171 167 164 169 164 163 183 190 223 204 154 314 342 337 340 343 340 344 344 348 350 349 340 333 334 334 332 333 333 334 340 352 333 327 316 296 280
217 175 166 157 156 161 168 169 168 171 174 171 172 171 177 207 192 177 222 297 320 334 328 331 343 345 349 353 350 341 331 329 328 327 327 329 331 330 332 343 346 338 322 314
175 140 183 195 184 167 159 156 155 161 165 163 164 158 159 180 202 214 231 241 288 330 324 328 340 339 345 349 346 339 332 329 330 324 322 325 323 318 315 317 326 334 337 327
208 202 197 176 156 150 145 147 160 178 176 171 166 170 180 191 212 226 228 194 265 305 317 330 334 332 344 347 340 331 328 327 327 324 321 317 315 313 311 310 309 313 325 333
197 190 177 173 177 172 167 175 186 193 185 183 181 186 190 187 197 195 182 183 209 255 283 305 311 322 340 339 331 322 318 323 329 325 322 321 320 318 316 314 313 311 311 313
178 192 192 193 194 192 189 189 191 189 185 186 184 174 165 167 178 196 215 212 224 252 263 271 290 313 320 321 322 314 315 321 330 331 327 327 325 321 317 315 313 312 310 306
200 198 190 187 189 191 190 187 184 179 182 179 159 158 170 187 203 214 225 230 255 268 265 265 299 315 315 320 323 318 321 322 322 317 319 322 321 318 317 313 310 311 318 321
192 189 186 184 180 179 179 178 176 173 166 160 166 180 192 203 206 208 206 218 244 259 269 279 318 315 305 316 333 319 318 319 319 318 319 319 324 321 318 315 316 315 316 324
180 174 171 170 170 170 171 168 162 163 164 163 167 177 192 206 203 204 213 230 233 234 245 277 288 283 291 301 330 315 313 313 312 312 313 313 314 315 316 315 316 316 316 318
169 165 164 166 167 165 164 163 164 169 169 168 177 189 196 205 205 203 216 245 248 203 191 244 247 262 275 301 310 299 297 301 302 300 302 304 308 312 313 315 318 318 319 322
165 163 165 165 162 165 165 163 166 169 171 178 184 184 185 199 213 224 229 229 227 195 191 234 247 266 284 298 279 275 279 287 290 296 299 304 304 304 306 310 309 310 314 313
164 165 166 169 167 163 157 163 169 173 182 187 187 190 197 202 203 217 243 228 200 212 219 239 260 271 281 280 266 266 269 275 283 288 293 295 293 291 295 299 300 302 299 298
156 158 158 151 143 155 177 188 177 177 185 190 194 195 193 198 219 219 217 204 210 231 236 260 270 272 275 263 258 260 263 268 273 278 283 284 285 286 285 286 289 291 291 292
155 153 154 157 170 186 186 172 167 179 185 193 199 201 199 194 200 206 199 215 232 238 244 262 270 274 263 255 250 253 257 258 258 261 263 273 276 277 277 276 275 277 279 280
163 167 174 181 183 177 169 170 181 187 184 191 200 194 187 181 186 190 201 217 223 240 235 238 253 264 255 253 253 255 257 274 284 277 265 266 268 270 275 279 280 277 276 275
154 155 154 163 178 177 174 178 185 191 189 188 196 186 178 179 187 195 203 214 219 220 221 228 236 244 250 255 259 260 263 265 268 271 270 267 269 273 279 279 279 278 278 277